DECAYED

THORAD AGENA D DEB, 4735 (Decayed)

Orbit data source: Space-Track

THORAD AGENA D DEB, 4735 was space debris in SSO originally from a launch on Wed, 08 Apr 1970 UTC launched from the Air Force Western Test Range (AFWTR). Debris objects in space refer to the collection of defunct objects orbiting the Earth. Examples of debris include non-operational satellites, rocket bodies, and fragments generated from explosions, collisions, or faulty payload assembly.

Loading next visibility...
Identifier
4735, 1970-025CJ
Orbit
Decayed
Country
Flag of USUS
Related business
Manufacturer
Unknown
Mission
Decayed spacecraft
Bus & Motor
Unknown
Mass
Unknown
Launch date (UTC)
1970-04-08 (56 years ago)
Launch vehicle
Unknown
Launch site
Air Force Western Test Range (AFWTR)
Object type
Payload
Rocket body
Debris
Shape & HBR
Unknown shape, 0.1 m
Radar Cross Section
Small (<0.1 m²)

Expand to show TLE details & history
Last TLE update: 2 months ago

TLE from 2 months ago
0 THORAD AGENA D DEB
1  4735U 70025CJ  26064.24995979  .06791631  13744-0  14291-1 0  9995
2  4735  99.5846  76.8615 0011376 181.1558 178.9691 16.05906055880624
Epoch: 2026-03-05T05:59Z
TLE epoch observation values (Epoch: 2026-03-05T05:59:56.525Z)
Latitude
-0.00012°
Longitude
-176.12702°
Altitude
268.78 km
Speed
7.742 km/s
True Right ascension
05h 07m 26s
True Declination
0° 00' 00"
Sunlit
Object was in daylight at epoch
Visualization orbit readout
Latitude
Unknown
Longitude
Unknown
Altitude
Unknown
Speed
Unknown
Apparent Right ascension
Unknown
Apparent Declination
Unknown
Sunlit
N/A
Visualization observer readout
Local Sidereal Time
15:24:37
Azimuth
Unknown
Elevation
Unknown
Doppler factor
Unknown
Orbital elements
Apogee altitude
262.607 km
Perigee altitude
247.515 km
Semi-major axis
6,633.198 km
Eccentricity
0.00114
Inclination
99.5846°
RAAN
76.8615°
Arg. of periapsis
181.1558°
True anomaly
178.97144°
Mean anomaly
178.9691°
Eccentric anomaly
178.97027°
Mean motion
4.01753 °/min
Orbital period
89.61 mins
BSTAR
0.014291

Documentation

Showing up to 5 results
|